Погода Канадей

Поиск расширенной информации на нашем сайте:

Полезная информация:

Новости сайта



02.01.2020
Опубликован Долгосрочный прогноз погоды по городам России и ближнего зарубежья на январь 2020 года.
Карты: Прогноз на январь и февраль 2020 года, Сравнение прогнозируемой аномалии приземной температуры воздуха на январь 2020 года по разным моделям.




Погода Канадей - сегодня

Время (UTC), дата Ветер
(°,м/с) 
Видим.   Явления Облачность Т
(°С)
Тd
(°С)
f(%) Тe
(°С)
Pmin
(гПа)
dP
(гПа)
Po
(мм)
O2
(г/м3)
Тmin Tmax R s Состояние
почвы
12 24.02.21 310 (СЗ) 4{10}  50000 м  позёмок  4/0 верхняя 
[Ci sp]
-15.5 -26 40 -20  1036.2  -0.5  766  329           
18 24.02.21 260 (З) 10 км    5/0 верхняя 
[Ci sp]
-23.9 -28.3 67 -24  1037.5  0.2  767  340           
21 24.02.21 320 (СЗ) 10 км    3/0 верхняя 
[Ci sp]
-27.2 -30.4 74 -28  1037.3  -0.4  767  345           
00 25.02.21 тихо ()   10 км    ясно 
-29.8 -32.9 74 -30  1036.7  -0.8  766  348           
03 25.02.21 тихо ()   10 км    8/0 средняя, верхняя 
[Ac trans|Ci sp]
-27.2 -30.5 73 -27  1035  -1.5  765  344  -30.6      30  равномерный
мокрый или
старый снег
100% 
06 25.02.21 100 (В) 20000 м    10/0 средняя 
[As op]
-21.3 -25.3 70 -24  1031.6  -3  763  335           
09 25.02.21 160 (Ю) 4000 м  слаб. снег  10/0 средняя 
[As op]
-16.7 -20.4 73 -21  1027.4  -3.9  760  328           
12 25.02.21 180 (Ю) 2000 м  снег  10/10 700 м 
[Ns]
-15.9 -18.9 78 -21  1023.3  -4  757  325           
15 25.02.21 120 (ЮВ) 4000 м  слаб. снег  10/10 700 м 
[Ns]
-15.5 -17.8 82 -18  1020.1  -3.1  754  324    -15.5     
18 25.02.21 110 (В) 4000 м  слаб. снег  10/10 700 м 
[Ns]
-13.7 -15.6 86 -16  1017.4  -2.5  752  321           
21 25.02.21 100 (В) 4000 м  слаб. снег  10/10 720 м 
[Sc]
-12.8 -14.6 86 -13  1015.3  -2  751  319           
00 26.02.21 100 (В) 4000 м  слаб. снег  10/10 720 м 
[Sc]
-11.7 -13.3 88 -12  1014.8  -0.4  751  317           
03 26.02.21 тихо ()   10 км    9/0 средняя 
[Ac trans]
-11.6 -13.2 88 -12  1015.4  0.5  751  317  -15.5    37  равномерный
сухой снег
100% 
06 26.02.21 130 (ЮВ) 20000 м    10/0 средняя 
[As op]
-11.7 -13.5 86 -15  1017.8  -0.6  751  317           
09 26.02.21 130 (ЮВ) 20000 м    10/0 средняя 
[Ac trans]
-9.5 -11.7 84 -11  1014.7  751  314           
12 26.02.21 140 (ЮВ) 4000 м  слаб. снег  10/10 700 м 
[Ns]
-8.5 -10.7 84 -12  1012.5  -2  749  313           
15 26.02.21 130 (ЮВ) 4000 м  слаб. снег  10/10 700 м 
[Ns]
-8.6 -10.4 87 -13  1008.8  -3.7  746  311    -8     
18 26.02.21 120 (ЮВ) 4000 м  слаб. ливневой снег  10/10 720 м кучево-дожд. 
[Cb cap]
-7.6 -8.9 90 -10  1004.2  -4.4  743  309           
21 26.02.21 060 (СВ) 10 км    10/10 720 м 
[Sc]
-4.5 -5.4 93 -6  1000.1  -3.9  740  304           
00 27.02.21 100 (В) 10 км    10/10 700 м 
[Sc]
-5.1 -6.1 93 -5  999.3  -0.8  739  304           
03 27.02.21 260 (З) 10 км  {морось}  10/10 720 м 
[Sc]
+1.9 +0.4 90 -1  997.8  -1.1  738  295  -8.6    38  равномерный
сухой снег
100% 
06 27.02.21 270 (З) 4-10{10}  50000 м  {морось}  9/9 720 м кучево-дожд. 
[Cb cap]
+3 +0.2 82 +1  997.5  -0.3  738  294           
09 27.02.21 260 (З) 4-10{10}  10 км  в посл. час ливневой дождь  10/10 720 м кучево-дожд. 
[Cb cap]
+3.2 -0.2 78 +1  997.3  -0.2  738  294           
12 27.02.21 290 (З) 3{10}  4000 м  слаб. ливневой снег  10/10 720 м кучево-дожд. 
[Cb cap]
+1.5 -0.5 87 997.4  738  296           
15 27.02.21 030 (СВ) 4000 м  слаб. снег  10/10 720 м 
[Sc]
-3.1 -5 87 -6  999.7  740  302    +3.6  0.7     
Время (UTC), дата Ветер
(°,м/с) 
Видим.   Явления Облачность Т
(°С)
Тd
(°С)
f(%) Тe
(°С)
Pmin
(гПа)
dP
(гПа)
Po
(мм)
O2
(г/м3)
Тmin Tmax R s Состояние
почвы

Для получения пояснительной информации подведите курсор к названию столбца.

ПОГОДА Канадей - архив

Всё, что Вы хотите узнать о погоде Канадей - удобно и подробно!

Выберите нужную дату (начиная с 1 января 2019* года) и нажмите кнопку "Найти".
Будут отображены архивные сводки погоды по пункту Канадей, начиная с указанной даты.


Отображать данные в формате CSV (для использования в таблицах Excel)


Внимание! Наш архив погоды предназначен исключительно для личного некоммерческого использования в познавательных целях. Если Вам необходимы официальные справки о состоянии погоды (для производственных, юридических, коммерческих и т.п. целей), обращайтесь в органы Росгидромета.

*Примечание: данная дата относится к архиву по метеостанциям СССР (Россия, СНГ, Балтия).
Архив по метеостанциям Зарубежной Европы и Азии (кроме Китая) хранится 10 дней, по другим регионам земного шара (Китай, Африка, Америка, Австралия, Океания) - 1 день.

Канадей - район местоположения метеостанции


Название, широта, долгота, высота метеостанции:
Канадей 53.1°ш. 47.5°д. 103 м над ур. моря [Российская Федерация]

Дополнительная информация

В oтличие oт бoльшинства пoгoдных сайтoв мы публикуем пoдрoбную метеoинфoрмацию в детальнoм прoфессиoнальнoм фoрмате.

Характеристики температуры и влажнoсти вoздуха измеряются на высoте 2 м в тени вдали oт зданий и деревьев.
Скoрoсть ветра измеряется на высoте 10 м (на урoвне рoста челoвека скoрoсть ветра ниже в 1.5-2 раза). Если метеoстанция нахoдится в гoрoде или в лесу, тo скoрoсть ветра занижена на 2-4 м/с пo сравнению с oткрытым местoм. Скoрoсть ветра над акватoриями крупных рек и oзёр, а также на вершинах хoлмoв на 2-5 м/с выше, чем в oбычных услoвиях.
Атмoсфернoе давление в разных тoчках местнoсти мoжет значительнo oтличаться oт давления на метеoстанции, в зависимoсти oт услoвий рельефа (при пoдъёме на 10 м давление пoнижается примернo на 1 мм рт.ст.).